TimeCET,TemperatureF,Dew PointF,Humidity,Sea Level PressureIn,VisibilityMPH,Wind Direction,Wind SpeedMPH,Gust SpeedMPH,PrecipitationIn,Events,Conditions,WindDirDegrees,DateUTC
12:00 AM,37,36,93,30.03,,NNE,2.2,,,,,30,2014-01-02 23:00:00
1:00 AM,35,35,100,30.04,,South,2.2,,,,,180,2014-01-03 00:00:00
2:00 AM,34,34,100,30.07,,WNW,2.2,,,,,300,2014-01-03 01:00:00
3:00 AM,31,31,100,30.09,,West,2.2,,,,,270,2014-01-03 02:00:00
4:00 AM,32,31,97,30.08,,NNE,2.2,,,,,30,2014-01-03 03:00:00
5:00 AM,32,31,97,30.08,,South,4.5,,,,,170,2014-01-03 04:00:00
5:15 AM,32.0,32.0,100,30.06,3.7,ENE,1.2,-,N/A,,Mostly Cloudy,60,2014-01-03 04:15:00
5:45 AM,32.0,32.0,100,30.06,0.4,NNE,2.3,-,N/A,Fog,Light Freezing Fog,30,2014-01-03 04:45:00
6:00 AM,31,31,100,30.08,0,NNE,2.2,,,Fog,Partial Fog,30,2014-01-03 05:00:00
6:00 AM,-9999,-9999,N/A,-9999,4.3,Variable,3.5,-,N/A,,Mostly Cloudy,0,2014-01-03 05:00:00
6:15 AM,32.0,32.0,100,30.06,0.4,Calm,Calm,-,N/A,Fog,Light Freezing Fog,0,2014-01-03 05:15:00
6:45 AM,30.2,30.2,100,30.06,0.7,Calm,Calm,-,N/A,,Mostly Cloudy,0,2014-01-03 05:45:00
7:00 AM,30,30,100,30.09,1,Calm,Calm,,,Fog,Light Fog,,2014-01-03 06:00:00
7:15 AM,30.2,30.2,100,30.06,0.9,Calm,Calm,-,N/A,,Mostly Cloudy,0,2014-01-03 06:15:00
7:45 AM,32.0,30.2,93,30.06,1.5,East,1.2,-,N/A,,Mostly Cloudy,80,2014-01-03 06:45:00
8:00 AM,31,31,100,30.10,1,East,2.2,,,,Mist,80,2014-01-03 07:00:00
8:15 AM,32.0,32.0,100,30.09,1.9,NE,1.2,-,N/A,,Scattered Clouds,40,2014-01-03 07:15:00
8:45 AM,33.8,33.8,100,30.09,-9999.0,Calm,Calm,-,N/A,,Mostly Cloudy,0,2014-01-03 07:45:00
9:00 AM,34,34,100,30.11,2,Calm,Calm,,,,Mist,,2014-01-03 08:00:00
9:00 AM,-9999,-9999,N/A,-9999,2.5,Variable,3.5,-,N/A,,Scattered Clouds,0,2014-01-03 08:00:00
9:15 AM,37.4,37.4,100,30.09,2.8,Calm,Calm,-,N/A,,Mostly Cloudy,0,2014-01-03 08:15:00
9:45 AM,37.4,37.4,100,30.09,1.9,NE,3.5,-,N/A,,Scattered Clouds,50,2014-01-03 08:45:00
10:00 AM,37,37,100,30.11,2,NE,4.5,,,,Mist,50,2014-01-03 09:00:00
10:15 AM,39.2,39.2,100,30.09,3.7,NE,3.5,-,N/A,,Scattered Clouds,50,2014-01-03 09:15:00
10:45 AM,42.8,41.0,93,30.09,-9999.0,ENE,2.3,-,N/A,,Clear,60,2014-01-03 09:45:00
11:00 AM,42,41,95,30.10,6,ENE,2.2,,,,Partly Cloudy,60,2014-01-03 10:00:00
11:15 AM,44.6,41.0,87,30.09,-9999.0,NE,2.3,-,N/A,,Clear,50,2014-01-03 10:15:00
11:45 AM,46.4,42.8,87,30.06,-9999.0,NE,3.5,-,N/A,,Clear,40,2014-01-03 10:45:00
12:00 PM,47,43,80,30.08,10,NE,4.5,,,,Partly Cloudy,40,2014-01-03 11:00:00
12:00 PM,-9999,-9999,N/A,-9999,2.5,Variable,3.5,-,N/A,,Clear,0,2014-01-03 11:00:00
12:15 PM,53.6,44.6,72,30.06,6.2,SE,4.6,-,N/A,,Partly Cloudy,140,2014-01-03 11:15:00
12:45 PM,51.8,42.8,71,30.04,6.2,ENE,2.3,-,N/A,,Partly Cloudy,70,2014-01-03 11:45:00
1:00 PM,51,43,65,30.05,14,ENE,2.2,,,,Partly Cloudy,70,2014-01-03 12:00:00
1:15 PM,55.4,44.6,67,30.04,6.2,SSE,2.3,-,N/A,,Partly Cloudy,160,2014-01-03 12:15:00
1:45 PM,55.4,44.6,67,30.04,6.2,SSW,10.4,-,N/A,,Partly Cloudy,200,2014-01-03 12:45:00
2:00 PM,56,44,55,30.04,19,SSW,8.9,,,,Partly Cloudy,200,2014-01-03 13:00:00
2:15 PM,55.4,44.6,67,30.04,6.2,South,12.7,-,N/A,,Mostly Cloudy,190,2014-01-03 13:15:00
2:45 PM,55.4,44.6,67,30.04,6.2,South,10.4,-,N/A,,Partly Cloudy,190,2014-01-03 13:45:00
3:00 PM,56,44,55,30.04,25,South,8.9,,,,Partly Cloudy,190,2014-01-03 14:00:00
3:15 PM,53.6,44.6,72,30.04,6.2,South,10.4,-,N/A,,Scattered Clouds,180,2014-01-03 14:15:00
3:45 PM,51.8,42.8,71,30.04,6.2,South,8.1,-,N/A,,Scattered Clouds,190,2014-01-03 14:45:00
4:00 PM,52,43,64,30.05,22,South,6.7,,,,Partly Cloudy,190,2014-01-03 15:00:00
4:15 PM,51.8,44.6,76,30.04,6.2,South,10.4,-,N/A,,Partly Cloudy,190,2014-01-03 15:15:00
4:45 PM,48.2,42.8,82,30.06,6.2,South,8.1,-,N/A,,Partly Cloudy,190,2014-01-03 15:45:00
5:00 PM,49,43,71,30.06,19,South,8.9,,,,Partly Cloudy,190,2014-01-03 16:00:00
5:00 PM,-9999,-9999,N/A,-9999,-9999.0,North,-9999.0,-,N/A,,Unknown,0,2014-01-03 16:00:00
6:00 PM,48,43,75,30.06,,South,8.9,,,,,180,2014-01-03 17:00:00
7:00 PM,45,42,83,30.07,,South,6.7,,,,,170,2014-01-03 18:00:00
8:00 PM,43,41,90,30.07,,SSE,6.7,,,,,160,2014-01-03 19:00:00
9:00 PM,43,41,92,30.08,,SSE,6.7,,,,,150,2014-01-03 20:00:00
10:00 PM,39,39,100,30.09,,East,2.2,,,,,100,2014-01-03 21:00:00
11:00 PM,38,38,99,30.10,,East,2.2,,,,,80,2014-01-03 22:00:00